Regional Weather Roundup
Issued by NWS

Home | Current Version | Previous Version | Graphics & Text | Print | Product List | Glossary On
Versions: 1 2 3 4 5 6 7 8 9 10 11 12 13 14 15 16 17 18 19 20 21 22 23 24 25 26 27 28 29 30 31 32 33 34 35 36 37 38 39 40 41 42 43 44 45 46 47 48 49 50
000
ASUS43 KIND 291159
RWRIN

WEATHER ROUNDUP FOR INDIANA
NATIONAL WEATHER SERVICE INDIANAPOLIS IN
700 AM EST THU JAN 29 2015

NOTE: "FAIR" INDICATES FEW OR NO CLOUDS BELOW 12,000 FEET WITH NO
SIGNIFICANT WEATHER AND/OR OBSTRUCTIONS TO VISIBILITY.

* - STATION DOES NOT REPORT WEATHER SUCH AS PRECIPITATION OR FOG.

+ - STATION NOT QUALITY CONTROLLED BY THE NATIONAL WEATHER SERVICE.
    USE DATA WITH CAUTION...ESPECIALLY DEWPOINT AND RELATIVE
    HUMIDITY OBSERVATIONS.

INZ001>003-010>013-019-020-291300-
NORTHWEST INDIANA

CITY           SKY/WX    TMP DP  RH WIND       PRES   REMARKS
GARY /AIRPORT/ MOCLDY    37  25  60 SE7       29.70S
VALPARAISO     NOT AVBL

$$

LMZ046-743>745-291300-
SOUTHERN LAKE MICHIGAN

STATION/POSITION TIME  TEMP WIND        PRES
                       AIR  DIR/SP/G
                 (UTC) (F)  (DEG/KT/KT) (MB)
MICHIGAN CITY    1100   37  140/ 16/ 23   N/A

$$

INZ004-005-014>016-021>024-291300-
NORTH CENTRAL INDIANA

CITY           SKY/WX    TMP DP  RH WIND       PRES   REMARKS
ELKHART        CLOUDY    36  21  55 S6        29.72
GOSHEN         CLOUDY    36  26  67 S12       29.71F
6HR MIN TEMP:  30; 6HR MAX TEMP:  36; 6HR PCP:  0.04;

SOUTH BEND     CLOUDY    36  26  67 S8        29.71F
6HR MIN TEMP:  32; 6HR MAX TEMP:  37; 6HR PCP:  0.02;


$$

INZ006>009-017-018-025>027-291300-
NORTHEAST INDIANA

CITY           SKY/WX    TMP DP  RH WIND       PRES   REMARKS
ANGOLA *+      PTCLDY    30  25  80 S9        29.74F WCI  22
FORT WAYNE     CLOUDY    35  28  75 S10       29.76F WCI  27
6HR MIN TEMP:  30; 6HR MAX TEMP:  36; 6HR PCP:  0.01;


$$

INZ028-029-035-036-043>045-051>053-291300-
WEST CENTRAL INDIANA

CITY           SKY/WX    TMP DP  RH WIND       PRES   REMARKS
GREENCASTLE +  MOCLDY    43  28  56 S10G18    29.76F
LAFAYETTE      PTCLDY    40  31  70 SW9       29.73F
6HR MIN TEMP:  35; 6HR MAX TEMP:  41;

TERRE HAUTE    CLOUDY    44  32  62 S9G20     29.78S
6HR MIN TEMP:  38; 6HR MAX TEMP:  44; 6HR PCP: TRACE;


$$

INZ030>032-037>040-046>048-054>057-064-065-291300-
CENTRAL INDIANA

CITY           SKY/WX    TMP DP  RH WIND       PRES   REMARKS
INDIANAPOLIS   MOCLDY    36  28  73 S8        29.78F
6HR MIN TEMP:  31; 6HR MAX TEMP:  36; 6HR PCP: TRACE;

-EAGLE CREEK   MOCLDY    37  27  67 S6        29.77F
6HR MIN TEMP:  33; 6HR MAX TEMP:  37; 6HR PCP: TRACE;

KOKOMO *+      MOCLDY    37  27  65 S16       29.74F
6HR MIN TEMP:  32; 6HR MAX TEMP:  37;

MT COMFORT *+  MOCLDY    37  21  52 S14       29.79F
SHELBYVILLE    MOCLDY    39  29  67 S15       29.80F
6HR MIN TEMP:  35; 6HR MAX TEMP:  40; 6HR PCP: TRACE;


$$

INZ033-034-041-042-049-050-058-059-291300-
EAST CENTRAL INDIANA

CITY           SKY/WX    TMP DP  RH WIND       PRES   REMARKS
MUNCIE         CLOUDY    38  28  67 S15G24    29.77F
6HR MIN TEMP:  33; 6HR MAX TEMP:  39; 6HR PCP: TRACE;


$$

INZ060-061-067>069-081>083-085>088-291300-
SOUTHWEST INDIANA

CITY           SKY/WX    TMP DP  RH WIND       PRES   REMARKS
EVANSVILLE     CLOUDY    51  36  56 SW15      29.86S
6HR MIN TEMP:  43; 6HR MAX TEMP:  52; 6HR PCP:  0.02;

HUNTINGBURG *+ CLOUDY    46  34  61 S16       29.85F
6HR MIN TEMP:  39; 6HR MAX TEMP:  46;


$$

INZ062-063-066-070>080-084-089>092-291300-
SOUTH CENTRAL AND SOUTHEAST INDIANA

CITY           SKY/WX    TMP DP  RH WIND       PRES   REMARKS
BLOOMINGTON    MOCLDY    46  33  60 S15G21    29.79F
6HR MIN TEMP:  35; 6HR MAX TEMP:  46; 6HR PCP: TRACE;

SEYMOUR +      CLOUDY    39  32  75 S9        29.84

$$



USA.gov is the U.S. government's official web portal to all federal, state and local government web resources and services.